Showing default

ROBUSTA-3A, 60243

Orbit data source: Space-Track

ROBUSTA-3A, 60243 is a payload satellite owned by Montpellier (FR) in LEO that was launched on Tue, 09 Jul 2024 UTC via an ARIANE 62 launch vehicle from the French Guiana (FRGUI). Payload-class satellites include a variety of spacecraft equipped with specific instruments for various scientific and technological missions. These include communications satellites like Starlink; space stations such as the ISS; scientific satellites like the Hubble; Earth observation satellites from companies like Planet Labs, Umbra, and HawkEye 360; GPS; miniature CubeSats for education and research; and military/defense satellites.

Loading next visibility...
Identifier
60243, 2024-128J
Orbit
LEO
Country
Flag of FRFR
Related business
Manufacturer
Montpellier
Mission
Operational Amateur Technology
Bus & Motor
CUBESAT 3U, Unknown motor
Mass
5 kg wet, 5 kg dry
Launch date (UTC)
2024-07-09 (2 years ago)
Launch vehicle
ARIANE 62
Launch site
French Guiana (FRGUI)
Object type
Payload
Rocket body
Debris
Shape & HBR
Box + 4 Pan, 1.0 m
Radar Cross Section
0.072 m², Medium (>0.1 m² and < 1m²)

Expand to show TLE details & history
Last TLE update: 16 hours ago

TLE from 16 hours ago
0 ROBUSTA-3A
1 60243U 24128J   26264.60727806  .00003847  00000-0  22911-3 0  9998
2 60243  61.9847 226.9663 0027669 147.0555 213.2273 15.12768806121001
Epoch: 2026-09-21T14:34Z
TLE epoch observation values (Epoch: 2026-09-21T14:34:28.824Z)
Latitude
0.00005°
Longitude
7.86155°
Altitude
545.54 km
Speed
7.581 km/s
True Right ascension
15h 07m 51s
True Declination
0° 00' 00"
Sunlit
Object was in daylight at epoch
Visualization orbit readout
Latitude
Unknown
Longitude
Unknown
Altitude
Unknown
Speed
Unknown
Apparent Right ascension
Unknown
Apparent Declination
Unknown
Sunlit
N/A
Visualization observer readout
Local Sidereal Time
00:04:22
Azimuth
Unknown
Elevation
Unknown
Doppler factor
Unknown
Orbital elements
Apogee altitude
545.792 km
Perigee altitude
507.582 km
Semi-major axis
6,904.824 km
Eccentricity
0.00277
Inclination
61.9847°
RAAN
226.9663°
Arg. of periapsis
147.0555°
True anomaly
213.05406°
Mean anomaly
213.2273°
Eccentric anomaly
213.14063°
Mean motion
3.78281 °/min
Orbital period
95.17 mins
BSTAR
0.00022911
Loading maneuver chart data...
Computing Atmospheric mass density...
Loading historical data...
Loading historical data...
Loading historical data...
Loading historical data...
Loading historical data...
Loading historical data...
Loading historical data...

Documentation

Showing up to 5 results
|